(75) Eurydike
ephemeris date magn radius delta ra dec elong phase
Today18 Sep 202515.53.292 AU4.051 AU09h29m+18°05'36.1°10.4°
Opposition17 Feb 202614.13.466 AU2.480 AU10h10m+15°02'176.4°1.0°
(75) Eurydike - 2025-09-18
astro.vanbuitenen.nl


 
-1 year
-1 month
-1 day
Now
+1 day
+1 month
+1 year

The interactive orbit chart above shows the body's path through the solar system and its position at the given date. Green and blue lines are shown perpendicular to the ecliptic plane: Green if the path is above the ecliptic plane, blue if it is below. (Left-click and drag to rotate the view; Right-click and drag to move the view; Use scroll wheel to zoom in our out.)

The orbital elements of Eurydike are:

            e (Eccentricity)                : 0.3045004
            a (Semimajor axis)              : 2.6748183
            i (Inclination)                 : 4.98995
            Ω (Longitude of ascending node) : 359.19988
            ω (Argument of perihelion)      : 339.66943
            M (Mean anomaly)                : 97.27785
            Epoch                           : 2025 May 05

            L (Longitude of perihelion)     : 338.94009
            B (Latitude of perihelion)      : -1.73176
            P (Orbital period in years)     : 4.37            
        

The light curve chart below shows the estimated development of the minor planet's magnitude.


The all-sky chart below shows the path of the minor planet over the same period as the light curve. The current position is marked yellow.





The following chart shows the path of the minor planet in the next few days. The field of view is optimized for (~10x50) binoculars and finderscopes. A more printer-friendly version of the same chart can be found below.




Ephemerides:
Date       Time       RA (2000)    DEC (2000)    delta   radius  elong  phase   PA    magn
2025-09-18 00:00 UT   09 29 51.8   +18 05 54     4.051    3.292   36.1   10.4   293   15.5 
2025-09-18 06:50 UT   09 30 12.5   +18 04 16     4.049    3.293   36.3   10.4   293   15.5 
2025-09-19 00:00 UT   09 31 04.2   +18 00 12     4.043    3.294   36.8   10.5   293   15.5 
2025-09-20 00:00 UT   09 32 16.1   +17 54 32     4.036    3.296   37.4   10.7   293   15.5 
2025-09-21 00:00 UT   09 33 27.7   +17 48 52     4.029    3.297   38.1   10.8   293   15.5 
2025-09-22 00:00 UT   09 34 38.9   +17 43 12     4.021    3.299   38.8   11.0   293   15.5 
2025-09-23 00:00 UT   09 35 49.6   +17 37 33     4.013    3.301   39.5   11.1   293   15.5 
2025-09-24 00:00 UT   09 37 00.0   +17 31 55     4.005    3.302   40.1   11.3   293   15.5 
2025-09-25 00:00 UT   09 38 10.0   +17 26 18     3.997    3.304   40.8   11.4   293   15.5 
2025-09-26 00:00 UT   09 39 19.5   +17 20 41     3.989    3.306   41.5   11.6   293   15.5 
2025-09-27 00:00 UT   09 40 28.7   +17 15 05     3.980    3.307   42.2   11.7   293   15.5 
2025-09-28 00:00 UT   09 41 37.4   +17 09 31     3.972    3.309   42.9   11.9   293   15.5 
2025-09-29 00:00 UT   09 42 45.7   +17 03 57     3.963    3.311   43.6   12.0   293   15.5 
2025-09-30 00:00 UT   09 43 53.5   +16 58 24     3.954    3.312   44.3   12.2   293   15.5 
2025-10-01 00:00 UT   09 45 00.9   +16 52 53     3.946    3.314   45.0   12.3   293   15.5 
2025-10-02 00:00 UT   09 46 07.9   +16 47 23     3.936    3.315   45.7   12.5   292   15.6 
2025-10-03 00:00 UT   09 47 14.4   +16 41 54     3.927    3.317   46.4   12.6   292   15.6 
2025-10-04 00:00 UT   09 48 20.5   +16 36 26     3.918    3.319   47.1   12.8   292   15.6 
2025-10-05 00:00 UT   09 49 26.1   +16 30 60     3.908    3.320   47.8   12.9   292   15.6 
2025-10-06 00:00 UT   09 50 31.2   +16 25 35     3.899    3.322   48.5   13.0   292   15.6 
2025-10-07 00:00 UT   09 51 35.9   +16 20 11     3.889    3.323   49.2   13.2   292   15.6 
2025-10-08 00:00 UT   09 52 40.1   +16 14 50     3.879    3.325   49.9   13.3   292   15.6 
2025-10-09 00:00 UT   09 53 43.8   +16 09 29     3.869    3.326   50.6   13.4   292   15.6 
2025-10-10 00:00 UT   09 54 47.1   +16 04 11     3.859    3.328   51.3   13.6   292   15.6 
2025-10-11 00:00 UT   09 55 49.8   +15 58 54     3.849    3.329   52.1   13.7   292   15.6 
2025-10-12 00:00 UT   09 56 52.1   +15 53 39     3.838    3.331   52.8   13.8   292   15.6 
2025-10-13 00:00 UT   09 57 53.8   +15 48 25     3.828    3.332   53.5   13.9   292   15.6 
2025-10-14 00:00 UT   09 58 55.1   +15 43 14     3.817    3.334   54.2   14.1   292   15.6 
2025-10-15 00:00 UT   09 59 55.8   +15 38 05     3.806    3.335   55.0   14.2   292   15.6 
2025-10-16 00:00 UT   10 00 56.0   +15 32 58     3.795    3.337   55.7   14.3   292   15.6 
2025-10-17 00:00 UT   10 01 55.6   +15 27 53     3.784    3.338   56.4   14.4   292   15.6 
2025-10-18 00:00 UT   10 02 54.8   +15 22 50     3.773    3.340   57.2   14.5   292   15.5 


    Terminology:
            
    delta:  distance between minor planet and earth in AU
    radius: distance between minor planet and sun in AU
    magn:   magnitude (brightness) estimate    
    ra:     right ascension in hours (24h = 360deg)
    dec:    declination in degrees
    elong:  elongation in degrees (angle sun-earth-minor planet)    
    phase:  phase angle in degrees (angle sun-minor planet-earth)        
    AU:     Astronomical Unit (mean distance between earth and sun: 149597870.7 km
    

Orbital elements provided by the MPC (Minor Planet Center).
Calculations by a modified version of AAPlus, a C# implementation of the AA+ project by PJ Naughter from the algorithms presented in the book "Astronomical Algorithms" by Jean Meeus.
NGC2000 dso catalog and star labels from VizieR as provided by the Strasbourg astronomical Data Center.
Tycho2 catalog from the ESO archive.